STARLINK-34660 (64800 NORAD) Tracking and Keplerian Element Data

This shows tracking and keplerian element data for the satellite.

Feedback or suggestion? Click here.




ElementValue
Catalog64800
NameSTARLINK-34660
Epoch Orbit590
Epoch Day354.25003472
Epoch Year2025
RAAN334.7128
Inclination69.9999
Eccentricity0.0002836
Argument of Perigee283.481
Mean Anonmoly246.1297
Mean Motion14.99115527
Decay Rate9.976E-05
L11 64800U 25150L 25354.25003472 .00009976 00000+0 82573-3 0 9991
L22 64800 69.9999 334.7128 0002836 283.4810 246.1297 14.99115527 5903



Live tracking and technical data element details for STARLINK-34660 (NORAD 64800). STARLINK-34660 can be tracked NOW for your location showing map with azimuth and elevation plus other details from your city location.







IsCatalogInMostPopularTable: catalog: 64800, numindb: 3
Update: records affected: 1



GetName: 64800 STARLINK-34660

Hit Count: updated at: Sun, 08 Feb 2026 08:16:32 GMT